Weather History for Sparta, WI

Change the Weather History Date:

Wednesday, February 13, 2013

  Actual Average Record
Temperature  
Mean Temperature 22 °F -  
Max Temperature 35 °F 29 °F 55 °F (1990)
Min Temperature 8 °F 6 °F -22 °F (1971)
Degree Days  
Heating Degree Days 44    
Moisture  
Dew Point 21 °F    
Average Humidity 84    
Maximum Humidity 100    
Minimum Humidity 65    
Precipitation  
Precipitation 0.01 in - - ()
Sea Level Pressure  
Sea Level Pressure 29.72 in    
Wind  
Wind Speed 1 mph (SW)    
Max Wind Speed 8 mph    
Max Gust Speed -    
Visibility 9 miles    
Events Snow    
Averages and records for this station are not official NWS values.
T = Trace of Precipitation, MM = Missing Value Source: NWS Daily Summary

Daily Weather History Graph

Daily Weather History Graph

Search for Another Location

Airport:

Trip Planner

Search our weather history database for the weather conditions in past years. The results will help you decide how hot, cold, wet, or windy it might be!

Date:

Astronomy

Feb. 13, 2013 Rise Set
Actual Time 7:04 AM CST 5:30 PM CST
Civil Twilight 6:34 AM CST 6:00 PM CST
Nautical Twilight 6:01 AM CST 6:33 PM CST
Astronomical Twilight 5:27 AM CST 7:07 PM CST
Moon 8:24 AM CST (2/13) 9:44 PM CST (2/13)
Length of Visible Light 11h 25m
Length of Day
10h 25m
Waxing Crescent, 14% of the Moon is Illuminated
Feb 13
Waxing Crescent
Feb 17
First Quarter
Feb 25
Full
Mar 4
Last Quarter
Mar 11
New

Hourly Weather History & Observations

Time (CST) Temp. Windchill Dew Point Humidity Pressure Visibility Wind Dir Wind Speed Gust Speed Precip Events Conditions
12:15 AM 14.0 °F - 12.2 °F 93% 29.82 in 7.0 mi Calm Calm - N/A   Clear
12:35 AM 14.0 °F - 12.2 °F 93% 29.82 in 10.0 mi Calm Calm - N/A   Clear
12:55 AM 12.2 °F - 12.2 °F 100% 29.81 in 10.0 mi Calm Calm - N/A   Clear
1:15 AM 12.2 °F - 10.4 °F 92% 29.81 in 10.0 mi Calm Calm - N/A   Clear
1:35 AM 12.2 °F - 10.4 °F 92% 29.81 in 10.0 mi Calm Calm - N/A   Clear
1:55 AM 12.2 °F - 10.4 °F 92% 29.80 in 10.0 mi Calm Calm - N/A   Clear
2:15 AM 10.4 °F - 10.4 °F 100% 29.80 in 10.0 mi Calm Calm - N/A   Clear
2:35 AM 10.4 °F - 8.6 °F 92% 29.80 in 10.0 mi Calm Calm - N/A   Clear
2:55 AM 10.4 °F - 8.6 °F 92% 29.79 in 10.0 mi Calm Calm - N/A   Clear
3:15 AM 10.4 °F - 8.6 °F 92% 29.78 in 10.0 mi Calm Calm - N/A   Clear
3:35 AM 10.4 °F - 8.6 °F 92% 29.78 in 10.0 mi Calm Calm - N/A   Clear
3:55 AM 10.4 °F - 8.6 °F 92% 29.77 in 10.0 mi Calm Calm - N/A   Clear
4:15 AM 10.4 °F - 8.6 °F 92% 29.77 in 10.0 mi Calm Calm - N/A   Clear
4:35 AM 10.4 °F - 8.6 °F 92% 29.77 in 10.0 mi Calm Calm - N/A   Clear
4:55 AM 10.4 °F - 8.6 °F 92% 29.77 in 10.0 mi Calm Calm - N/A   Clear
5:15 AM 10.4 °F - 8.6 °F 92% 29.77 in 10.0 mi Calm Calm - N/A   Clear
5:35 AM 8.6 °F - 5.0 °F 85% 29.77 in 10.0 mi Calm Calm - N/A   Clear
6:15 AM 10.4 °F - 8.6 °F 92% 29.76 in 10.0 mi Calm Calm - N/A   Clear
6:35 AM 12.2 °F - 10.4 °F 92% 29.75 in 10.0 mi Calm Calm - N/A   Clear
6:55 AM 12.2 °F - 12.2 °F 100% 29.76 in 10.0 mi Calm Calm - N/A   Scattered Clouds
7:15 AM 14.0 °F - 14.0 °F 100% 29.75 in 10.0 mi Calm Calm - N/A   Scattered Clouds
7:35 AM 15.8 °F - 14.0 °F 93% 29.75 in 10.0 mi Calm Calm - N/A   Scattered Clouds
7:55 AM 17.6 °F - 17.6 °F 100% 29.75 in 10.0 mi Calm Calm - N/A   Clear
8:15 AM 19.4 °F - 19.4 °F 100% 29.75 in 7.0 mi Calm Calm - N/A   Clear
8:35 AM 21.2 °F - 21.2 °F 100% 29.74 in 7.0 mi Calm Calm - N/A   Clear
8:55 AM 24.8 °F 20.5 °F 23.0 °F 93% 29.73 in 10.0 mi WSW 3.5 mph - N/A   Clear
9:15 AM 26.6 °F 21.2 °F 23.0 °F 86% 29.73 in 10.0 mi West 4.6 mph - N/A   Clear
9:35 AM 26.6 °F 22.6 °F 23.0 °F 86% 29.73 in 10.0 mi WSW 3.5 mph - N/A   Clear
9:55 AM 28.4 °F 22.2 °F 23.0 °F 80% 29.72 in 10.0 mi West 5.8 mph - N/A   Clear
10:15 AM 28.4 °F 22.2 °F 23.0 °F 80% 29.73 in 10.0 mi WSW 5.8 mph - N/A   Clear
10:35 AM 30.2 °F 26.7 °F 23.0 °F 75% 29.73 in 10.0 mi West 3.5 mph - N/A   Clear
10:55 AM 30.2 °F 24.3 °F 23.0 °F 75% 29.73 in 10.0 mi West 5.8 mph - N/A   Clear
11:15 AM 32.0 °F 26.4 °F 23.0 °F 69% 29.73 in 10.0 mi WSW 5.8 mph - N/A   Clear
11:35 AM 32.0 °F 27.5 °F 23.0 °F 69% 29.72 in 10.0 mi SSW 4.6 mph - N/A   Clear
11:55 AM 33.8 °F 27.7 °F 24.8 °F 70% 29.72 in 10.0 mi West 6.9 mph - N/A   Clear
12:15 PM 33.8 °F 30.8 °F 24.8 °F 70% 29.70 in 10.0 mi West 3.5 mph - N/A   Clear
12:35 PM 35.6 °F 30.7 °F 24.8 °F 65% 29.70 in 10.0 mi WSW 5.8 mph - N/A   Clear
12:55 PM 33.8 °F 30.8 °F 24.8 °F 70% 29.70 in 10.0 mi WSW 3.5 mph - N/A   Clear
1:15 PM 35.6 °F 29.9 °F 24.8 °F 65% 29.69 in 10.0 mi WSW 6.9 mph - N/A   Clear
1:35 PM 35.6 °F 29.2 °F 24.8 °F 65% 29.70 in 10.0 mi WSW 8.1 mph - N/A   Clear
1:55 PM 35.6 °F 29.2 °F 24.8 °F 65% 29.70 in 10.0 mi West 8.1 mph - N/A   Clear
2:15 PM 35.6 °F 32.8 °F 24.8 °F 65% 29.69 in 10.0 mi SW 3.5 mph - N/A   Clear
2:35 PM 35.6 °F 31.7 °F 26.6 °F 70% 29.69 in 10.0 mi West 4.6 mph - N/A   Clear
2:55 PM 35.6 °F 31.7 °F 26.6 °F 70% 29.70 in 10.0 mi West 4.6 mph - N/A   Clear
3:15 PM 35.6 °F 29.2 °F 24.8 °F 65% 29.69 in 10.0 mi West 8.1 mph - N/A   Clear
3:35 PM 35.6 °F 32.8 °F 26.6 °F 70% 29.69 in 10.0 mi WSW 3.5 mph - N/A   Clear
3:55 PM 35.6 °F - 26.6 °F 70% 29.69 in 10.0 mi Calm Calm - N/A   Clear
4:15 PM 35.6 °F - 26.6 °F 70% 29.69 in 10.0 mi Calm Calm - N/A   Clear
4:35 PM 35.6 °F - 26.6 °F 70% 29.69 in 10.0 mi Calm Calm - N/A   Scattered Clouds
4:55 PM 35.6 °F 32.8 °F 26.6 °F 70% 29.68 in 10.0 mi South 3.5 mph - N/A   Scattered Clouds
5:15 PM 35.6 °F 32.8 °F 26.6 °F 70% 29.68 in 10.0 mi SSW 3.5 mph - N/A   Scattered Clouds
5:35 PM 35.6 °F 31.7 °F 26.6 °F 70% 29.68 in 10.0 mi South 4.6 mph - N/A   Clear
5:55 PM 35.6 °F 31.7 °F 26.6 °F 70% 29.68 in 10.0 mi SSW 4.6 mph - N/A   Clear
6:15 PM 35.6 °F 32.8 °F 26.6 °F 70% 29.68 in 10.0 mi SSW 3.5 mph - N/A   Clear
6:35 PM 33.8 °F - 26.6 °F 75% 29.68 in 10.0 mi Calm Calm - N/A   Clear
6:55 PM 33.8 °F - 26.6 °F 75% 29.69 in 10.0 mi Calm Calm - N/A   Scattered Clouds
7:15 PM 33.8 °F 30.8 °F 26.6 °F 75% 29.68 in 10.0 mi SSW 3.5 mph - N/A   Scattered Clouds
7:35 PM 33.8 °F - 28.4 °F 81% 29.68 in 10.0 mi Calm Calm - N/A   Clear
7:55 PM 33.8 °F 30.8 °F 28.4 °F 81% 29.68 in 10.0 mi South 3.5 mph - N/A   Scattered Clouds
8:15 PM 32.0 °F 28.7 °F 28.4 °F 87% 29.67 in 10.0 mi SSE 3.5 mph - N/A   Clear
8:35 PM 33.8 °F - 28.4 °F 81% 29.66 in 10.0 mi Calm Calm - N/A   Clear
8:55 PM 32.0 °F 28.7 °F 28.4 °F 87% 29.66 in 10.0 mi SSE 3.5 mph - N/A   Clear
9:15 PM 32.0 °F - 28.4 °F 87% 29.65 in 10.0 mi Calm Calm - N/A   Clear
9:35 PM 32.0 °F - 28.4 °F 87% 29.64 in 10.0 mi Calm Calm - N/A   Scattered Clouds
9:55 PM 32.0 °F - 30.2 °F 93% 29.63 in 7.0 mi Calm Calm - N/A Snow Light Snow
10:15 PM 32.0 °F 28.7 °F 30.2 °F 93% 29.62 in 3.0 mi ESE 3.5 mph - N/A Snow Light Snow
10:35 PM 32.0 °F - 32.0 °F 100% 29.62 in 3.0 mi Calm Calm - N/A Snow Light Snow
10:55 PM 32.0 °F 28.7 °F 32.0 °F 100% 29.61 in 3.0 mi SE 3.5 mph - N/A Snow Light Snow
11:15 PM 32.0 °F 28.7 °F 32.0 °F 100% 29.60 in 2.0 mi ESE 3.5 mph - N/A Snow Light Snow
11:35 PM 32.0 °F 28.7 °F 32.0 °F 100% 29.58 in 2.5 mi East 3.5 mph - 0.01 in Snow Light Snow
11:55 PM 32.0 °F - 32.0 °F 100% 29.58 in 4.0 mi Calm Calm - 0.01 in Snow Light Snow